• In Deutschland
  • Länderverzeichnis
  • Für 7 Tage
  • Wassertemperatur
  • Satellitenkarten
  • Wetterkarte
  • Widgets
  • user-avatar
    Anmelden

    Stündliche Wetter Linz

    Heute, 21 Juli, Samstag

    Zeit Temperatur Niederschläge Wind Luftdruck Luftfeuchtigkeit
    00:00 +20°C° 0 mm 1 m/S 732 mmHg 82%
    01:00 +19°C° 0 mm 1 m/S 731 mmHg 83%
    02:00 +19°C° 0 mm 1 m/S 731 mmHg 84%
    03:00 +19°C° 0 mm 1 m/S 731 mmHg 85%
    04:00 +18°C° 0 mm 1 m/S 731 mmHg 86%
    05:00 +19°C° 0,1 mm 1 m/S 731 mmHg 84%
    06:00 +19°C° 0,1 mm 0 m/S 731 mmHg 82%
    07:00 +20°C° 0,1 mm 0 m/S 731 mmHg 80%
    08:00 +22°C° 0,2 mm 1 m/S 731 mmHg 79%
    09:00 +23°C° 0,2 mm 1 m/S 731 mmHg 78%
    10:00 +24°C° 0,2 mm 1 m/S 731 mmHg 77%
    11:00 +25°C° 0,4 mm 1 m/S 731 mmHg 75%
    12:00 +26°C° 0,4 mm 1 m/S 731 mmHg 73%
    13:00 +26°C° 0,4 mm 1 m/S 731 mmHg 71%
    14:00 +26°C° 1,6 mm 1 m/S 730 mmHg 74%
    15:00 +26°C° 1,6 mm 1 m/S 730 mmHg 78%
    16:00 +23°C° 1,6 mm 0 m/S 730 mmHg 81%
    17:00 +22°C° 1,1 mm 0 m/S 730 mmHg 84%
    18:00 +21°C° 1,1 mm 0 m/S 730 mmHg 86%
    19:00 +22°C° 1,1 mm 1 m/S 730 mmHg 89%
    20:00 +21°C° 0,3 mm 1 m/S 730 mmHg 90%
    21:00 +20°C° 0,3 mm 1 m/S 730 mmHg 91%
    22:00 +19°C° 0,3 mm 1 m/S 730 mmHg 92%
    23:00 +19°C° 0,1 mm 1 m/S 730 mmHg 93%

    Morgen, 22 Juli, Sonntag

    Zeit Temperatur Niederschläge Wind Luftdruck Luftfeuchtigkeit
    00:00 +19°C° 0,1 mm 1 m/S 730 mmHg 94%
    01:00 +18°C° 0,1 mm 1 m/S 730 mmHg 95%
    02:00 +18°C° 0,1 mm 1 m/S 730 mmHg 95%
    03:00 +18°C° 0,1 mm 1 m/S 730 mmHg 96%
    04:00 +18°C° 0,1 mm 1 m/S 730 mmHg 96%
    05:00 +19°C° 0,1 mm 1 m/S 730 mmHg 96%
    06:00 +19°C° 0,1 mm 1 m/S 730 mmHg 95%
    07:00 +20°C° 0,1 mm 1 m/S 730 mmHg 94%
    08:00 +21°C° 0,3 mm 1 m/S 730 mmHg 92%
    09:00 +20°C° 0,3 mm 2 m/S 730 mmHg 90%
    10:00 +21°C° 0,3 mm 2 m/S 730 mmHg 88%
    11:00 +23°C° 0,7 mm 2 m/S 730 mmHg 87%
    12:00 +23°C° 0,7 mm 2 m/S 730 mmHg 86%
    13:00 +24°C° 0,7 mm 2 m/S 730 mmHg 85%
    14:00 +24°C° 1,3 mm 2 m/S 730 mmHg 86%
    15:00 +24°C° 1,3 mm 2 m/S 730 mmHg 87%
    16:00 +24°C° 1,3 mm 2 m/S 730 mmHg 88%
    17:00 +23°C° 1,4 mm 2 m/S 730 mmHg 90%
    18:00 +22°C° 1,4 mm 1 m/S 730 mmHg 92%
    19:00 +21°C° 1,4 mm 1 m/S 730 mmHg 93%
    20:00 +21°C° 0,3 mm 1 m/S 730 mmHg 94%
    21:00 +20°C° 0,3 mm 1 m/S 730 mmHg 94%
    22:00 +19°C° 0,3 mm 1 m/S 731 mmHg 95%
    23:00 +19°C° 0,2 mm 1 m/S 731 mmHg 95%

    übermorgen, 23 Juli, Montag

    Zeit Temperatur Niederschläge Wind Luftdruck Luftfeuchtigkeit
    00:00 +19°C° 0,2 mm 1 m/S 730 mmHg 95%
    01:00 +19°C° 0,2 mm 1 m/S 730 mmHg 95%
    02:00 +19°C° 0,6 mm 1 m/S 730 mmHg 96%
    03:00 +19°C° 0,6 mm 1 m/S 730 mmHg 96%
    04:00 +19°C° 0,6 mm 1 m/S 730 mmHg 96%
    05:00 +19°C° 0,7 mm 1 m/S 731 mmHg 96%
    06:00 +19°C° 0,7 mm 1 m/S 731 mmHg 96%
    07:00 +20°C° 0,7 mm 1 m/S 731 mmHg 96%
    08:00 +21°C° 0,4 mm 1 m/S 731 mmHg 92%
    09:00 +21°C° 0,4 mm 2 m/S 731 mmHg 87%
    10:00 +23°C° 0,4 mm 2 m/S 732 mmHg 83%
    11:00 +25°C° 0,4 mm 2 m/S 731 mmHg 77%
    12:00 +26°C° 0,4 mm 2 m/S 731 mmHg 70%
    13:00 +27°C° 0,4 mm 2 m/S 731 mmHg 64%
    14:00 +27°C° 0,4 mm 2 m/S 731 mmHg 64%
    15:00 +27°C° 0,4 mm 2 m/S 731 mmHg 65%
    16:00 +27°C° 0,4 mm 2 m/S 732 mmHg 65%
    17:00 +25°C° 0,2 mm 2 m/S 732 mmHg 71%
    18:00 +24°C° 0,2 mm 2 m/S 732 mmHg 77%
    19:00 +23°C° 0,2 mm 1 m/S 732 mmHg 82%
    20:00 +22°C° 0,1 mm 1 m/S 732 mmHg 85%
    21:00 +20°C° 0,1 mm 2 m/S 733 mmHg 87%
    22:00 +18°C° 0,1 mm 2 m/S 733 mmHg 89%
    23:00 +19°C° 0 mm 1 m/S 733 mmHg 90%

    24 Juli, Dienstag

    Zeit Temperatur Niederschläge Wind Luftdruck Luftfeuchtigkeit
    00:00 +19°C° 0 mm 1 m/S 733 mmHg 91%
    01:00 +18°C° 0 mm 1 m/S 733 mmHg 93%
    02:00 +18°C° 0 mm 1 m/S 733 mmHg 93%
    03:00 +18°C° 0 mm 1 m/S 733 mmHg 94%
    04:00 +16°C° 0 mm 1 m/S 733 mmHg 94%
    05:00 +19°C° 0 mm 1 m/S 733 mmHg 91%
    06:00 +20°C° 0 mm 1 m/S 733 mmHg 87%
    07:00 +19°C° 0 mm 0 m/S 733 mmHg 84%
    08:00 +23°C° 0,1 mm 1 m/S 733 mmHg 79%
    09:00 +25°C° 0,1 mm 1 m/S 733 mmHg 73%
    10:00 +26°C° 0,1 mm 1 m/S 733 mmHg 68%
    11:00 +27°C° 0,1 mm 1 m/S 732 mmHg 64%
    12:00 +28°C° 0,1 mm 1 m/S 732 mmHg 60%
    13:00 +29°C° 0,1 mm 1 m/S 732 mmHg 56%
    14:00 +29°C° 0 mm 1 m/S 732 mmHg 56%
    15:00 +29°C° 0 mm 1 m/S 731 mmHg 56%
    16:00 +29°C° 0 mm 1 m/S 731 mmHg 56%
    17:00 +27°C° 0,1 mm 1 m/S 731 mmHg 64%
    18:00 +26°C° 0,1 mm 1 m/S 731 mmHg 71%
    19:00 +24°C° 0,1 mm 1 m/S 731 mmHg 79%
    20:00 +23°C° 0,1 mm 1 m/S 731 mmHg 83%
    21:00 +22°C° 0,1 mm 1 m/S 732 mmHg 86%
    22:00 +20°C° 0,1 mm 1 m/S 732 mmHg 89%
    23:00 +20°C° 0 mm 1 m/S 732 mmHg 90%

    25 Juli, Mittwoch

    Zeit Temperatur Niederschläge Wind Luftdruck Luftfeuchtigkeit
    00:00 +19°C° 0 mm 1 m/S 732 mmHg 91%
    01:00 +19°C° 0 mm 1 m/S 732 mmHg 92%
    02:00 +19°C° 0 mm 1 m/S 732 mmHg 93%
    03:00 +18°C° 0 mm 1 m/S 732 mmHg 93%
    04:00 +18°C° 0 mm 1 m/S 732 mmHg 94%
    05:00 +19°C° 0,2 mm 1 m/S 732 mmHg 91%
    06:00 +19°C° 0,2 mm 0 m/S 732 mmHg 87%
    07:00 +20°C° 0,2 mm 0 m/S 732 mmHg 84%
    08:00 +21°C° 0,8 mm 0 m/S 732 mmHg 81%
    09:00 +25°C° 0,8 mm 1 m/S 732 mmHg 77%
    10:00 +26°C° 0,8 mm 1 m/S 732 mmHg 74%
    11:00 +26°C° 0,6 mm 1 m/S 732 mmHg 70%
    12:00 +27°C° 0,6 mm 1 m/S 732 mmHg 66%
    13:00 +28°C° 0,6 mm 1 m/S 732 mmHg 62%
    14:00 +28°C° 0,3 mm 1 m/S 731 mmHg 61%
    15:00 +28°C° 0,3 mm 1 m/S 731 mmHg 61%
    16:00 +28°C° 0,3 mm 1 m/S 731 mmHg 60%
    17:00 +27°C° 0,1 mm 1 m/S 732 mmHg 67%
    18:00 +25°C° 0,1 mm 1 m/S 732 mmHg 73%
    19:00 +22°C° 0,1 mm 0 m/S 732 mmHg 80%
    20:00 +21°C° 0 mm 0 m/S 732 mmHg 83%
    21:00 +21°C° 0 mm 1 m/S 732 mmHg 85%
    22:00 +20°C° 0 mm 1 m/S 733 mmHg 88%
    23:00 +20°C° 0 mm 1 m/S 733 mmHg 89%

    26 Juli, Donnerstag

    Zeit Temperatur Niederschläge Wind Luftdruck Luftfeuchtigkeit
    00:00 +19°C° 0 mm 1 m/S 733 mmHg 90%
    01:00 +19°C° 0 mm 1 m/S 733 mmHg 92%
    02:00 +19°C° 0 mm 1 m/S 733 mmHg 92%
    03:00 +18°C° 0 mm 1 m/S 733 mmHg 93%
    04:00 +18°C° 0 mm 1 m/S 733 mmHg 93%
    05:00 +19°C° 0 mm 1 m/S 733 mmHg 90%
    06:00 +21°C° 0 mm 1 m/S 733 mmHg 86%
    07:00 +20°C° 0 mm 0 m/S 733 mmHg 82%
    08:00 +24°C° 0 mm 1 m/S 733 mmHg 76%
    09:00 +26°C° 0 mm 1 m/S 733 mmHg 69%
    10:00 +28°C° 0 mm 1 m/S 734 mmHg 63%
    11:00 +28°C° 0,1 mm 1 m/S 733 mmHg 59%
    12:00 +29°C° 0,1 mm 1 m/S 733 mmHg 56%
    13:00 +30°C° 0,1 mm 1 m/S 733 mmHg 52%
    14:00 +30°C° 0,1 mm 1 m/S 733 mmHg 53%
    15:00 +29°C° 0,1 mm 1 m/S 733 mmHg 53%
    16:00 +29°C° 0,1 mm 1 m/S 733 mmHg 54%
    17:00 +28°C° 0 mm 1 m/S 733 mmHg 61%
    18:00 +24°C° 0 mm 0 m/S 733 mmHg 68%
    19:00 +23°C° 0 mm 0 m/S 733 mmHg 75%
    20:00 +22°C° 0,1 mm 0 m/S 733 mmHg 78%
    21:00 +23°C° 0,1 mm 1 m/S 734 mmHg 80%
    22:00 +21°C° 0,1 mm 1 m/S 734 mmHg 82%
    23:00 +21°C° 0 mm 1 m/S 734 mmHg 84%
    Mehr zeigen